Theta_e
321 319 316 316 315 314 315 313 312 312 312 312 311 310 310 308 307 306 306 306 305 304 303 301 301 299 296 294 294 293 293 293 290 291 295 291 292 292 291 292 292 291 291
319 317 315 315 314 312 312 313 313 312 312 312 311 311 311 310 308 307 305 306 304 302 303 302 302 299 296 294 292 291 291 291 291 289 288 290 290 291 289 289 290 290 289
315 314 313 313 313 312 312 312 312 311 311 310 310 310 310 309 307 306 306 306 306 305 303 301 299 298 295 295 294 294 293 293 293 291 288 290 289 289 287 288 288 287 289
314 312 311 311 311 311 310 310 308 307 305 305 304 303 302 300 301 303 304 302 299 298 297 296 294 293 292 292 290 290 291 290 291 288 285 286 287 287 287 285 283 286 285
313 312 310 309 309 308 306 304 303 302 302 302 300 297 295 295 295 298 300 297 296 294 292 292 291 291 290 290 288 287 288 287 287 287 283 284 285 285 284 285 283 283 284
310 309 307 306 305 304 302 299 298 297 297 297 296 293 292 293 292 293 296 295 294 291 289 288 289 289 288 288 287 287 286 283 282 283 282 284 286 286 286 284 283 281 279
307 306 305 303 301 300 299 296 293 291 291 292 291 291 289 291 291 291 291 290 290 289 288 288 288 288 287 286 285 284 284 284 285 285 284 285 286 287 286 284 282 282 280
303 302 301 298 294 293 291 289 288 288 287 287 287 286 286 288 290 289 288 287 286 286 287 286 285 284 285 285 283 280 279 279 281 282 282 283 284 285 287 287 284 283 282
294 293 292 292 289 289 288 286 286 286 286 286 286 285 286 286 289 288 287 285 284 284 285 284 284 283 284 285 282 280 275 272 280 283 284 285 286 286 288 287 282 281 279
291 290 290 290 288 288 286 286 285 286 285 286 285 286 287 286 289 288 286 285 283 282 281 282 282 279 282 283 281 275 269 272 270 271 273 277 280 281 285 286 285 282 278
288 288 288 288 287 286 286 286 285 285 285 285 285 285 285 286 286 288 287 284 283 280 278 276 275 282 283 282 280 273 271 267 272 271 270 271 274 278 279 280 285 284 280
287 287 286 287 287 286 286 286 286 285 285 285 284 284 285 284 286 287 287 286 285 281 271 271 271 281 281 281 276 281 281 272 268 267 267 266 269 274 277 278 281 282 283
287 286 286 286 286 286 286 285 285 285 284 284 283 282 282 282 282 284 285 285 283 277 271 274 281 280 280 276 281 281 272 271 267 266 265 267 268 274 278 278 279 280 280
287 286 286 286 286 286 286 286 285 285 284 284 284 283 282 281 280 281 282 282 280 277 273 269 270 271 266 265 268 270 266 265 265 264 264 265 268 269 274 277 276 277 276
286 286 286 286 286 285 283 281 285 285 282 285 285 284 282 280 280 282 281 279 279 276 269 267 265 263 262 263 263 265 265 265 265 262 264 266 269 270 272 274 276 275 274
286 286 286 286 285 284 283 282 285 286 287 287 286 285 283 284 284 284 283 282 281 278 270 269 262 261 263 264 264 265 267 266 266 269 268 269 271 272 272 272 274 274 273
287 286 286 285 285 284 283 282 280 283 286 286 286 286 286 284 284 284 284 284 282 279 269 266 263 262 264 269 268 269 268 269 273 270 269 269 271 274 274 275 275 274 272
287 286 286 286 286 285 283 281 280 279 275 276 284 284 285 285 284 284 283 283 279 275 274 270 269 268 271 272 272 272 271 270 270 271 269 270 267 272 273 275 275 272 272
286 286 286 285 284 284 285 282 280 277 276 275 279 280 282 283 283 282 281 272 268 269 274 274 272 273 274 274 269 268 264 264 264 264 269 270 270 271 270 272 274 273 273
286 282 284 286 285 285 284 281 280 278 277 277 276 275 278 279 277 277 270 264 267 271 272 274 274 273 274 272 266 263 262 263 264 266 262 261 263 269 269 269 271 271 272
286 286 286 285 285 285 283 282 280 278 277 276 276 275 275 276 271 276 271 268 271 273 270 273 272 270 269 270 272 268 269 268 267 268 267 265 260 266 269 269 270 272 271
286 285 285 284 284 284 283 282 281 279 278 277 275 274 275 271 272 272 271 270 270 272 273 271 271 272 273 273 272 267 265 262 262 265 264 264 266 266 265 265 264 265 269
285 284 284 284 284 283 283 281 280 278 276 275 276 274 274 270 271 272 272 267 269 268 269 269 267 268 268 267 270 271 269 268 268 267 264 263 265 265 263 264 263 262 263
283 284 283 283 282 282 282 280 279 280 279 274 272 272 271 270 271 270 268 266 264 263 263 265 268 270 267 264 265 269 271 267 268 269 268 265 265 266 263 265 265 263 261
283 283 283 282 281 280 280 281 281 281 280 280 278 273 275 271 272 274 272 269 267 264 265 265 269 269 269 268 267 268 267 267 265 265 264 265 265 263 262 264 264 264 261
282 282 282 282 282 282 282 282 281 282 281 281 279 279 278 273 272 275 272 269 267 264 264 264 267 268 268 268 269 266 264 264 264 264 265 266 263 261 263 264 264 264 263
Wind_Speed
9 7 7 7 8 7 7 6 7 7 7 8 8 7 7 7 6 6 6 6 6 5 4 6 6 5 3 1 1 1 1 1 2 1 2 3 5 9 7 5 7 6 6
9 8 9 7 6 6 7 7 6 7 6 7 6 6 6 6 6 7 7 6 7 6 6 5 5 3 4 3 2 1 1 2 3 3 2 2 2 7 7 9 7 6 5
8 8 7 7 7 7 7 5 4 4 4 4 3 4 5 5 5 6 6 6 5 3 5 6 5 5 4 3 3 1 2 0 3 3 3 2 3 6 7 6 6 6 5
8 7 8 8 7 7 7 7 7 7 8 7 7 6 6 6 5 4 2 3 6 6 5 6 5 6 5 5 3 3 3 1 1 3 2 3 3 4 5 8 5 4 6
12 11 7 6 6 8 10 10 9 9 9 8 7 7 7 7 5 5 2 6 7 7 6 7 6 9 11 7 3 2 2 1 1 1 3 3 3 6 9 5 5 5 3
8 9 10 11 11 10 9 8 9 10 9 8 8 6 7 5 11 10 5 5 7 8 6 5 6 9 9 13 12 10 5 2 1 0 2 4 5 7 5 8 7 7 4
13 11 11 11 11 10 9 9 8 9 8 6 7 7 6 4 10 11 10 6 4 6 6 5 5 5 6 7 10 10 9 11 7 0 1 2 4 7 8 9 8 9 4
11 11 11 11 11 9 8 8 6 5 6 5 6 6 5 4 10 11 11 7 6 7 5 5 5 5 4 4 4 4 4 4 4 3 3 3 2 4 9 11 11 6 5
10 11 10 11 10 7 9 8 5 6 6 6 4 6 6 3 6 10 8 6 7 7 6 5 5 4 5 5 3 3 3 3 5 3 3 4 7 10 7 5 7 8 4
9 10 8 8 9 9 8 9 4 5 6 5 5 5 6 3 6 8 7 4 6 4 5 5 7 4 4 4 3 4 3 2 3 4 4 4 6 6 10 5 8 9 4
6 9 8 8 9 8 8 6 7 6 5 4 4 4 4 3 5 6 7 2 4 4 4 1 2 5 5 5 3 3 4 3 2 2 3 3 3 4 4 4 2 6 6
10 10 9 9 7 8 9 7 7 5 5 4 4 4 2 3 6 8 7 3 6 5 3 1 0 6 6 7 4 6 5 4 3 3 3 3 3 3 5 5 5 5 4
10 9 9 9 8 7 8 7 5 4 4 4 2 4 3 2 3 6 7 4 8 4 3 5 7 7 9 6 6 6 4 3 3 3 2 2 1 2 4 4 6 10 10
11 9 8 8 7 6 5 5 5 4 3 3 4 4 3 3 2 1 4 4 9 5 4 3 5 5 5 3 4 5 2 3 3 2 1 2 3 3 3 3 4 5 6
10 9 8 6 6 5 4 2 3 1 3 4 3 4 5 5 4 6 7 4 5 5 4 3 3 4 3 3 3 3 3 3 3 2 2 2 2 2 3 3 3 3 3
11 8 6 6 5 5 5 4 8 3 3 9 8 5 1 5 13 12 12 11 12 10 3 2 1 0 1 1 1 2 2 2 1 1 1 1 1 2 2 3 3 2 4
11 9 7 6 6 6 5 4 4 4 7 4 6 8 8 9 14 13 11 13 14 8 2 2 2 3 3 2 2 2 1 1 1 2 1 1 2 2 2 2 3 3 3
10 11 7 6 6 6 6 5 4 4 3 1 5 6 9 11 11 10 10 11 7 1 1 3 4 3 3 3 2 2 1 0 0 1 1 1 0 1 1 1 3 2 2
8 7 6 5 6 6 6 6 6 5 3 2 3 4 6 10 9 9 9 2 3 2 2 2 3 4 3 3 3 2 3 2 1 2 1 2 2 1 1 2 3 4 4
7 7 7 6 5 6 6 6 6 6 5 4 3 3 4 4 2 2 2 2 2 2 2 2 2 3 3 4 3 3 2 2 2 2 1 2 1 2 2 3 3 3 2
6 7 8 5 6 5 6 7 6 6 6 5 4 4 6 5 4 4 2 2 2 3 3 3 2 3 3 4 4 3 2 2 2 3 3 2 2 3 2 3 3 3 4
5 5 5 4 5 6 6 6 7 7 6 6 3 3 8 3 4 4 4 3 4 3 3 4 3 3 4 5 4 4 4 3 2 2 3 2 2 3 2 3 3 2 4
5 5 5 5 5 6 6 6 6 6 5 5 6 5 4 3 4 4 4 3 3 3 2 3 3 2 2 3 4 5 5 4 5 4 4 3 3 3 3 2 3 3 3
5 5 5 5 5 5 6 7 6 7 7 6 5 5 5 4 4 5 4 4 3 2 2 3 3 5 4 3 2 3 3 3 4 5 6 4 4 4 3 2 3 3 3
5 5 5 5 5 5 6 6 6 6 6 6 6 4 5 4 4 4 4 4 4 3 3 3 4 6 6 7 5 5 5 6 5 5 4 4 5 5 3 3 3 2 3
5 5 4 5 5 5 6 6 6 6 6 6 6 6 5 6 5 5 5 5 4 3 4 2 4 6 7 5 6 5 6 6 6 6 4 5 5 3 4 4 5 3 3
Wind_Direction
193 188 185 181 176 181 188 190 190 184 193 189 190 182 193 195 201 197 205 206 202 208 199 193 194 162 153 111 67 24 14 104 185 350 78 118 131 145 137 130 122 114 117
193 183 187 180 164 173 174 177 172 181 186 186 175 181 192 202 202 204 210 207 204 204 211 201 167 173 135 119 64 344 224 213 156 164 119 138 132 149 138 130 139 135 126
178 174 167 170 175 174 165 161 143 128 123 108 142 188 202 205 213 228 223 218 213 207 171 142 137 141 115 109 114 3 301 107 163 148 148 126 95 144 127 124 140 129 148
164 164 163 178 175 149 126 104 86 82 71 69 60 49 44 48 28 359 202 131 108 96 81 99 103 104 110 94 66 30 332 279 214 141 116 120 123 151 139 144 144 161 158
166 169 167 121 108 105 100 105 100 90 86 71 58 38 46 41 25 354 80 116 110 98 90 98 97 107 96 86 115 55 6 26 6 237 128 138 147 163 177 164 154 149 153
134 120 121 118 110 99 95 94 98 94 85 84 79 66 46 32 15 18 81 110 119 121 117 103 103 95 96 97 93 81 63 105 106 225 178 181 190 176 160 165 152 155 174
117 114 107 102 93 85 80 71 48 60 75 72 74 68 61 42 53 46 64 71 68 102 116 123 105 101 101 111 97 81 61 57 47 312 236 229 187 193 168 167 177 184 164
103 101 100 99 89 83 88 89 76 69 80 99 95 93 83 51 75 70 71 74 73 63 75 86 98 89 82 102 104 80 49 40 36 11 350 336 325 308 201 189 183 155 103
111 116 120 123 128 142 109 121 128 118 104 78 94 96 106 78 103 111 97 86 80 65 64 75 84 73 52 49 115 114 48 345 355 20 342 350 349 356 239 174 159 158 141
150 153 142 131 126 120 142 126 120 103 102 100 90 99 111 88 123 116 109 111 103 91 63 58 77 77 52 41 141 139 112 297 335 0 355 349 8 2 11 226 179 174 136
120 105 91 99 121 133 103 96 100 97 98 100 100 100 109 92 74 117 128 100 128 125 115 75 18 80 76 54 115 146 177 171 35 43 15 13 356 9 2 346 210 166 149
91 97 102 104 103 101 108 105 103 106 109 111 130 118 105 95 91 79 72 119 133 122 142 156 151 99 85 81 63 87 90 79 63 48 47 13 6 359 2 3 36 83 67
102 109 109 104 106 110 112 112 115 121 134 140 151 172 141 101 85 96 85 60 117 97 124 162 132 95 80 56 71 67 59 75 84 65 50 359 335 333 5 9 47 74 70
127 121 119 121 125 121 124 137 143 153 163 191 172 165 156 135 125 97 85 82 109 103 108 80 93 81 72 53 25 27 55 100 120 123 83 305 332 5 27 24 39 50 73
138 132 133 133 135 132 99 135 162 150 156 184 199 166 165 176 181 166 138 133 133 135 103 56 43 36 29 14 9 14 27 37 59 31 42 22 24 32 17 20 35 35 58
142 143 144 143 130 119 118 91 56 107 190 191 171 163 158 143 158 172 160 159 157 147 74 106 59 61 144 164 87 0 8 53 16 71 51 60 60 55 55 32 53 65 95
142 147 145 143 143 140 142 149 135 56 63 102 141 155 162 161 164 173 174 182 165 142 98 114 189 188 216 194 180 158 189 226 168 78 75 82 86 75 71 81 72 73 78
142 144 150 151 154 150 152 150 143 156 136 85 116 124 137 143 155 158 158 143 159 92 138 172 204 196 202 189 185 184 219 106 93 163 166 205 170 118 99 125 149 118 105
137 153 151 155 164 162 161 157 150 142 130 123 115 93 133 140 145 163 140 121 142 180 241 177 180 183 194 181 194 192 164 157 144 129 121 125 134 122 71 90 116 135 123
158 159 160 161 150 159 154 150 148 151 152 159 148 151 140 127 140 140 120 121 149 217 228 193 195 167 184 165 172 154 142 131 134 139 130 118 152 134 125 127 130 131 105
158 154 153 145 153 158 153 152 153 153 157 165 164 161 159 153 166 174 180 198 230 224 206 207 192 183 171 163 160 161 161 165 150 142 130 125 129 103 102 110 105 103 107
133 134 137 147 146 148 148 150 154 157 161 159 159 159 167 134 159 174 198 214 228 216 190 178 180 180 171 164 159 158 158 165 180 165 138 131 118 108 111 92 81 101 116
124 129 144 148 147 144 149 153 153 154 157 151 162 156 174 177 179 187 203 212 202 177 169 143 144 150 174 169 158 163 165 191 192 167 157 149 141 133 136 133 126 109 131
137 155 168 155 152 155 163 164 162 164 163 155 159 167 175 184 187 198 197 187 176 160 151 143 161 158 148 152 166 179 169 155 155 171 155 145 152 137 115 117 149 143 137
149 160 166 155 155 153 154 158 164 164 168 166 171 169 184 183 197 180 175 177 159 149 173 162 145 150 144 140 142 140 147 141 141 134 125 125 139 148 136 132 140 116 105
136 142 150 152 161 164 163 163 167 169 169 167 169 177 183 178 177 166 166 164 163 168 166 168 159 150 150 146 149 143 137 133 126 122 126 125 130 130 131 134 137 139 135